STARLINK-11237, 60934

Orbit data source: Space-Track

STARLINK-11237, 60934 is a payload satellite owned by SpaceX/Seattle (US) in LEO that was launched on Sat, 31 Aug 2024 UTC via an FALCON 9 launch vehicle from the Air Force Western Test Range (AFWTR). Payloads include a variety of satellites, spacecraft, and rockets equipped with specific instruments for various scientific and technological missions. These include communications satellites like Starlink; space stations such as the ISS; scientific satellites like the Hubble; Earth observation satellites from companies like Planet Labs, Umbra, and HawkEye 360; GPS; miniature CubeSats for education and research; and military/defense satellites.

Loading next visibility...
STARLINK-11237 details
Identifier
60934, 2024-155L
Orbit
LEO
Last TLE update14 hours ago
Origin
Flag of USSpaceX/Seattle (US)
ManufacturerSpaceX/Seattle
MissionOperational spacecraft
Bus & MotorSTARLINK V2M, Unknown motor
Mass730 kg wet, ~700 kg dry
Launch date (UTC)
2024-08-31 (5 months ago)
Launch vehicle
FALCON 9
Launch site
Air Force Western Test Range (AFWTR)
Object type
Payload
Rocket body
Debris
Shape & HBRUnknown
Radar Cross SectionLarge (>1 m²)

Expand to show TLE details & history

TLE from 14 hours ago
0 STARLINK-11237
1 60934U 24155L   25015.04413206 -.00000498  00000-0  74650-6 0  9992
2 60934  53.1610 244.7046 0001288 107.7463 252.3696 15.69707720 22588
Epoch: 2025-01-15T01:03Z
Definitive object data (Epoch: 2025-01-15T01:03:33.009Z)
Latitude-0.00001°
Longitude114.07492°
Altitude360.911 km
Speed7.694 km/s
True Right ascension16h 18m 49s
True Declination0° 00' 00"
Sunlit
Object was in daylight at TLE epoch
Visualization TLE readout
Latitude6.83006°
Longitude116.36111°
Altitude360.185 km
Speed7.695 km/s
Apparent Right ascension18h 34m 16s
Apparent Declination-55° 11' 36"
Sunlit
Object is in daylight
Visualization observer readout
Local Sidereal Time15:31:37
Azimuth155.254° SSE
Elevation-12.761°
Doppler factor1
Orbital elements
Apogee altitude360.862 km
Perigee altitude359.126 km
Semi-major axis6,738.131 km
Eccentricity0.0001288
Inclination53.161°
RAAN244.7046°
Arg. of periapsis107.7463°
True anomaly252.35553°
Mean anomaly252.3696°
Eccentric anomaly252.36257°
Mean motion3.92405 °/min
BSTAR7.465e-7
Orbital period91.74 mins
Loading maneuver chart data...
Loading historical data...
Loading historical data...
Loading historical data...
Loading historical data...
Loading historical data...
Loading historical data...
Loading historical data...

STARLINK-11237 Visibility forecast

Observer location: undefined°, undefined

Span
Click to sort rows by Start time (UTC) header in descending order
Start Az.
Max El. time (UTC)
Max El. Az.
Max El.
End time (UTC)
End Az.
4 mins2025-01-15 18:03:52.004Z237.116° WSW2025-01-15 18:05:52.004Z316.115° NNW43.802°2025-01-15 18:07:52.004Z44.332° NE
4 mins2025-01-16 00:28:52.004Z319.977° NNW2025-01-16 00:30:52.004Z72.875° E41.172°2025-01-16 00:32:52.004Z119.685° SE
|